WetterOnline ( https://www.wetteronline.de )

Wetter aktuell Grube

Aktuelles Wetter: Dörnick (28m)

6-stündlich | Neueste Meldungen
Ortszeit Temperatur Wetter
Di, 09.08. 8:00 15.1° C wolkenlos
Di, 09.08. 2:00 12.3° C wolkenlos
Mo, 08.08. 20:00 20.4° C bewölkt
Mo, 08.08. 14:00 20.4° C bedeckt
Mo, 08.08. 8:00 15.2° C wolkenlos
Mo, 08.08. 2:00 9.9° C leicht bewölkt
So, 07.08. 20:00 19.6° C leicht bewölkt
So, 07.08. 14:00 18.9° C wolkig
Ortszeit Temperatur Wetter
Di, 09.08. 13:00 20.5° C wolkig
Di, 09.08. 12:50 20.5° C wolkig
Di, 09.08. 12:40 21.2° C bewölkt
Di, 09.08. 12:30 21.8° C wolkig
Di, 09.08. 12:20 21.8° C wolkig
Di, 09.08. 12:10 20.1° C bewölkt
Di, 09.08. 12:00 19.9° C bewölkt
Di, 09.08. 11:30 20.5° C wolkig
Di, 09.08. 11:00 20.9° C leicht bewölkt
Di, 09.08. 10:30 20.4° C fast wolkenlos
Di, 09.08. 10:00 19.9° C fast wolkenlos
Ortszeit Relative Feuchte Sichtweite
Di, 09.08. 8:00 87% 30 km
Di, 09.08. 2:00 89% 45 km
Mo, 08.08. 20:00 64% 65 km
Mo, 08.08. 14:00 59% 45 km
Mo, 08.08. 8:00 78% 40 km
Mo, 08.08. 2:00 94% 30 km
So, 07.08. 20:00 54% 60 km
So, 07.08. 14:00 54% 55 km
Ortszeit Relative Feuchte Sichtweite
Di, 09.08. 13:00 63% 60 km
Di, 09.08. 12:50 63% -
Di, 09.08. 12:40 61% -
Di, 09.08. 12:30 64% 40 km
Di, 09.08. 12:20 64% -
Di, 09.08. 12:10 68% -
Di, 09.08. 12:00 67% 50 km
Di, 09.08. 11:30 65% 60 km
Di, 09.08. 11:00 64% 40 km
Di, 09.08. 10:30 67% >70 km
Di, 09.08. 10:00 72% 50 km
Ortszeit Niederschlagsmenge Niederschlagsart
Di, 09.08. 8:00 0.0 l/m2 in 12 Std. -
Di, 09.08. 2:00 0.0 l/m2 in 6 Std. -
Mo, 08.08. 20:00 0.0 l/m2 in 12 Std. -
Mo, 08.08. 14:00 0.0 l/m2 in 6 Std. -
Mo, 08.08. 8:00 0.0 l/m2 in 12 Std. -
Mo, 08.08. 2:00 0.0 l/m2 in 6 Std. -
So, 07.08. 20:00 0.0 l/m2 in 12 Std. -
So, 07.08. 14:00 0.0 l/m2 in 6 Std. -
Ortszeit Niederschlagsmenge Niederschlagsart
Di, 09.08. 13:00 0.0 l/m2 in 1 Std. -
Di, 09.08. 12:50 keine Meldung -
Di, 09.08. 12:40 keine Meldung -
Di, 09.08. 12:30 0.0 l/m2 in 1 Std. -
Di, 09.08. 12:20 keine Meldung -
Di, 09.08. 12:10 keine Meldung -
Di, 09.08. 12:00 0.0 l/m2 in 1 Std. -
Di, 09.08. 11:30 0.0 l/m2 in 1 Std. -
Di, 09.08. 11:00 0.0 l/m2 in 1 Std. -
Di, 09.08. 10:30 0.0 l/m2 in 1 Std. -
Di, 09.08. 10:00 0.0 l/m2 in 1 Std. -
Ortszeit Stärke Spitze Richtung
km/h Bft. km/h Grad Sektor
Di, 09.08. 8:00 4 1 7 320° NW
Di, 09.08. 2:00 4 1 11 290° W
Mo, 08.08. 20:00 4 1 18 310° NW
Mo, 08.08. 14:00 7 2 14 360° N
Mo, 08.08. 8:00 0 0 7 - -
Mo, 08.08. 2:00 2 1 11 260° W
So, 07.08. 20:00 7 2 22 310° NW
So, 07.08. 14:00 11 2 25 240° SW
Ortszeit Stärke Spitze Richtung
km/h Bft. km/h Grad Sektor
Di, 09.08. 13:00 11 2 22 340° N
Di, 09.08. 12:50 11 2 - 340° N
Di, 09.08. 12:40 11 2 - 10° N
Di, 09.08. 12:30 9 2 17 20° N
Di, 09.08. 12:20 9 2 - 20° N
Di, 09.08. 12:10 7 2 - 20° N
Di, 09.08. 12:00 7 2 18 350° N
Di, 09.08. 11:30 7 2 14 340° N
Di, 09.08. 11:00 9 2 15 50° NO
Di, 09.08. 10:30 7 2 14 20° N
Di, 09.08. 10:00 7 2 14 10° N
Ortszeit Untergrenze Bedeckung Gattung
total tief tief mittel hoch
Di, 09.08. 8:00 - 0/8 0/8 - - -
Di, 09.08. 2:00 - 0/8 0/8 - - -
Mo, 08.08. 20:00 2100 m 7/8 7/8 - - -
Mo, 08.08. 14:00 1050 m 8/8 8/8 - - -
Mo, 08.08. 8:00 - 0/8 0/8 - - -
Mo, 08.08. 2:00 3600 m 4/8 4/8 - - -
So, 07.08. 20:00 4500 m 2/8 2/8 - - -
So, 07.08. 14:00 1350 m 6/8 5/8 - - -
Ortszeit Bedeckungsgrad in Achtel und Wolkenuntergrenze
Di, 09.08. 13:00 2(930m) 4(1440m) 6(9000m)
Di, 09.08. 12:50 2(930m) 4(1440m) 6(9000m)
Di, 09.08. 12:40 7
Di, 09.08. 12:30 2(1440m) 3(8400m) 7(9000m)
Di, 09.08. 12:20 2(1440m) 3(8400m) 7(9000m)
Di, 09.08. 12:10 7
Di, 09.08. 12:00 2(840m) 7(1500m)
Di, 09.08. 11:30 4(840m) 7(9000m) 7(10500m)
Di, 09.08. 11:00 1(690m)
Di, 09.08. 10:30 1(570m)
Di, 09.08. 10:00 1(510m)
Ortszeit Luftdruck NN (hPa) Tendenz (hPa in 3 Std.)
Di, 09.08. 8:00 1029 + 0,8
Di, 09.08. 2:00 1028 + 0,4
Mo, 08.08. 20:00 1026 + 0,2
Mo, 08.08. 14:00 1026 + 0,1
Mo, 08.08. 8:00 1025 + 0,6
Mo, 08.08. 2:00 1025 + 0,3
So, 07.08. 20:00 1024 - 0,7
So, 07.08. 14:00 1025 - 0,9
Ortszeit Luftdruck NN (hPa) Tendenz (hPa in 3 Std.)
Di, 09.08. 13:00 1030 + 0,2
Di, 09.08. 12:50 1030 keine Meldung
Di, 09.08. 12:40 1030 keine Meldung
Di, 09.08. 12:30 1030 + 0,2
Di, 09.08. 12:20 1030 keine Meldung
Di, 09.08. 12:10 1030 keine Meldung
Di, 09.08. 12:00 1030 + 0,4
Di, 09.08. 11:30 1030 + 0,5
Di, 09.08. 11:00 1029 + 0,6
Di, 09.08. 10:30 1029 + 0,8
Di, 09.08. 10:00 1029 + 1,0
Ortszeit Schneehöhe (cm)
Di, 09.08. 8:00 0
Di, 09.08. 2:00 0
Mo, 08.08. 20:00 0
Mo, 08.08. 14:00 0
Mo, 08.08. 8:00 0
Mo, 08.08. 2:00 0
So, 07.08. 20:00 0
So, 07.08. 14:00 0
Ortszeit Schneehöhe (cm)
Di, 09.08. 13:00 0
Di, 09.08. 12:50 0
Di, 09.08. 12:40 0
Di, 09.08. 12:30 0
Di, 09.08. 12:20 0
Di, 09.08. 12:10 0
Di, 09.08. 12:00 0
Di, 09.08. 11:30 0
Di, 09.08. 11:00 0
Di, 09.08. 10:30 0
Di, 09.08. 10:00 0
Link zu dieser Seite / Seite empfehlen

Das Wetter in ...